Location: Unspecified
(0.0000°N, 0.0000°E)
Time: 19:00:49
(UTC+00:00)

deb Delta 126 - Pass Details

Date: 18 February 2026
Orbit: 1501 x 1634 km, 102.6° (Epoch: 11 March)

Event Time Altitude Azimuth Distance (km) Brightness Sun altitude
Rises 05:43:50 0° 343° (NNW) 4,795 ? -7.4°
Reaches altitude 10° 05:48:09 10° 324° (NW) 3,790 ? -6.3°
Maximum altitude 05:53:11 17° 289° (WNW) 3,267 ? -5.1°
Drops below altitude 10° 05:58:12 10° 253° (WSW) 3,740 ? -3.9°
Sets 06:02:29 0° 234° (SW) 4,702 ? -2.8°
